ATLAS 5 CENTAUR DEB, 43996

Orbit data source: Space-Track

ATLAS 5 CENTAUR DEB, 43996 is space debris in HEO originally from a launch on Wed, 17 Sep 2014 UTC launched from the Air Force Eastern Test Range (AFETR). Debris objects in space refer to the collection of defunct objects orbiting the Earth. Examples of debris include non-operational satellites, rocket bodies, and fragments generated from explosions, collisions, or faulty payload assembly.

Loading next visibility...
Identifier
43996, 2014-055BB
Orbit
HEO
Country
Flag of USUS
Related business
Flag of USUnited Launch Alliance/Lockheed Martin (US)
Manufacturer
Unknown
Mission
Spacecraft
Bus & Motor
Unknown
Mass
Unknown
Launch date (UTC)
2014-09-17 (12 years ago)
Launch vehicle
Unknown
Launch site
Air Force Eastern Test Range (AFETR)
Object type
Payload
Rocket body
Debris
Shape & HBR
Unknown shape, 1.1 m
Radar Cross Section
Medium (>0.1 m² and <1 m²)

Expand to show TLE details & history
Last TLE update: 2 days ago

TLE from 2 days ago
0 ATLAS 5 CENTAUR DEB
1 43996U 14055BB  26171.18444985 -.00000040  00000-0  00000+0 0  9990
2 43996  19.7102 156.8256 4835291 141.9003 264.9109  1.81739605 51081
Epoch: 2026-06-20T04:25Z
TLE epoch observation values (Epoch: 2026-06-20T04:25:36.467Z)
Latitude
-0.00002°
Longitude
-177.98807°
Altitude
28,675.715 km
Speed
2.948 km/s
True Right ascension
10h 27m 15s
True Declination
0° 00' 00"
Sunlit
Object was in daylight at epoch
Visualization orbit readout
Latitude
Unknown
Longitude
Unknown
Altitude
Unknown
Speed
Unknown
Apparent Right ascension
Unknown
Apparent Declination
Unknown
Sunlit
N/A
Visualization observer readout
Local Sidereal Time
21:44:05
Azimuth
Unknown
Elevation
Unknown
Doppler factor
Unknown
Orbital elements
Apogee altitude
35,703.684 km
Perigee altitude
8,272.089 km
Semi-major axis
28,366.023 km
Eccentricity
0.48353
Inclination
19.7102°
RAAN
156.8256°
Arg. of periapsis
141.9003°
True anomaly
218.14691°
Mean anomaly
264.9109°
Eccentric anomaly
240.7412°
Mean motion
0.4543 °/min
Orbital period
792.42 mins
BSTAR
0
Loading maneuver chart data...
Computing Atmospheric mass density...

Documentation

Showing up to 5 results
|